User: anonymous   Login
Location: Unspecified
(0.0000°N, 0.0000°E)
Time: 10:47:14
(UTC+00:00)
Language:

Skynet 4A - Orbit

View from above orbital plane
View from above orbital plane
View from above satellite
View from above satellite

Ground track
Ground track

The orbit data is extracted from the following two-line orbital elements,

1 20401U 90001A   17202.41584178 -.00000086 +00000-0 +00000-0 0  9992
2 20401 013.3199 012.3968 0015378 235.4158 040.3108 00.98998776096662
Epoch (UTC): 21 July 2017 09:58:48
Eccentricity: 0.0015378
inclination: 13.3199°
perigee height: 36081 km
apogee height: 36212 km
right ascension of ascending node: 12.3968°
argument of perigee: 235.4158°
revolutions per day: 0.98998776
mean anomaly at epoch: 40.3108°
orbit number at epoch: 9666

The dashed part of the orbit path shows where the satellite is in the earth's shadow,  

DLR